User: anonymous   Login
Location: Tyler Bend Campground
(35.9875°N, 92.7606°W)
Time: 05:52:35
(UTC-05:00)
Language:

Iridium 39 - Orbit

View from above orbital plane
View from above orbital plane
View from above satellite
View from above satellite

Ground track
Ground track

The orbit data is extracted from the following two-line orbital elements,

1 25042U 97069D   16181.02884727  .00000046  00000-0  86809-5 0  9995
2 25042  86.3933 169.8385 0003667 103.6477 256.5129 14.37746454975687
Epoch (UTC): 29 June 2016 00:41:32
Eccentricity: 0.0003667
inclination: 86.3933°
perigee height: 763 km
apogee height: 768 km
right ascension of ascending node: 169.8385°
argument of perigee: 103.6477°
revolutions per day: 14.37746454
mean anomaly at epoch: 256.5129°
orbit number at epoch: 97568

The dashed part of the orbit path shows where the satellite is in the earth's shadow,  

DLR